Location: Berg
(47.2344°N, 9.5296°E)
Time: 14:49:24
(UTC+00:00)

Cosmos 44 - Pass Details

Date: 15 May 2021
Orbit: 571 x 791 km, 65.1° (Epoch: 13 June)

Event Time Altitude Azimuth Distance (km) Brightness Sun altitude
Rises 20:49:01 0° 322° (NW) 3,295 8.7 -15.7°
Reaches altitude 10° 20:51:28 10° 322° (NW) 2,356 7.4 -15.9°
Maximum altitude 20:56:56 85° 236° (SW) 780 3.5 -16.5°
Enters shadow 20:59:43 29° 148° (SSE) 1,374 4.2 -16.7°
